Location: *
(50.3440°N, 18.6237°E)
Time: 09:03:34
(UTC+00:00)

FLOCK 3S 1 - Visible Passes

Search period start: 16 June 2021 00:00
Search period end: 26 June 2021 00:00
Orbit: 570 x 592 km, 97.7° (Epoch: 15 June)

Date Brightness Start Highest point End Pass type
(mag) Time Alt. Az. Time Alt. Az. Time Alt. Az.
16 Jun ? 20:48:23 10° SSW 20:52:09 39° W 20:56:00 10° NNW visible
17 Jun ? 20:53:48 10° SSW 20:57:32 35° W 21:01:18 10° NNW visible
18 Jun ? 20:59:19 10° SSW 21:02:56 31° W 21:06:35 10° NNW visible
19 Jun ? 21:04:50 10° SSW 21:08:20 27° W 21:11:52 10° NW visible
20 Jun ? 21:10:23 10° SSW 21:13:44 24° W 21:17:07 10° NW visible
21 Jun ? 21:15:58 10° SW 21:19:09 22° W 21:22:21 10° NW visible
22 Jun ? 19:45:02 10° SE 19:48:56 47° ENE 19:52:52 10° N visible
22 Jun ? 21:21:34 10° SW 21:24:33 19° W 21:27:33 10° NW visible
23 Jun ? 19:50:19 10° SSE 19:54:16 53° ENE 19:58:16 10° N visible
23 Jun ? 21:27:13 10° SW 21:29:58 17° W 21:32:44 10° NW visible
24 Jun ? 19:55:37 10° SSE 19:59:37 60° ENE 20:03:39 10° N visible
24 Jun ? 21:32:55 10° SW 21:35:23 15° W 21:37:51 10° NW visible
25 Jun ? 20:00:56 10° SSE 20:04:58 68° ENE 20:09:02 10° N visible
25 Jun ? 21:38:41 10° WSW 21:40:48 14° W 21:42:56 10° WNW visible
